x

Yucatan Basin - 120 Nm Ese Of Cozumel, Mx (42056) Wave Buoy

5:50pm - Tue 9th Feb 2016 All times are CST. -6 hours from GMT.

  • Sig Wave height 4.9ft
  • Swell Direction
  • Peak Period 5s
  • Average Period 5s
  • Wind
    22mph, 27mph gusts
  • Sea Temp 80°f
  • Air Temp 75°f
  • Sea Pressure 1020mb
  •  Yucatan Basin - 120 Nm Ese Of Cozumel, Mx
  •  Yucatan Basin - 120 Nm Ese Of Cozumel, Mx

More Historic Weather Station data

Upgrade to MSW Pro to gain access to the past 30 days of data for over 8000 Wavebouys and Weather Stations around the globe.

Join Pro

Comparision Forecast

View Surf forecast
   
Tue 02/09 5:50pm 5ft 5s 5s 22 27 mph 1020mb 80f 75f
4:50pm 4.5ft 6s 4s 22 27 mph 1019.6mb 80f 75f
3:50pm 3.5ft 6s 5s 18 22 mph 1019.3mb 80f 75f
2:50pm 3.5ft 8s 4s 18 20 mph 1019.2mb 80f 75f
1:50pm 3.5ft 8s 5s 18 22 mph 1019.3mb 80f 75f
12:50pm 3.5ft 6s 5s 11 16 mph 1020.2mb 80f 75f
11:50am 3.5ft 6s 5s 13 18 mph 1021mb 80f 75f
10:50am 3.5ft 6s 4s 11 18 mph 1021.8mb 80f 75f
9:50am 4.5ft 6s 5s 16 18 mph 1022.5mb 80f 75f
8:50am 4.5ft 5s 5s 18 22 mph 1022.3mb 80f 74f
7:50am 4.5ft 5s 4s 20 25 mph 1021.8mb 80f 74f
6:50am 4.5ft 6s 4s 22 27 mph 1020.8mb 80f 74f
5:50am 4.5ft 5s 4s 18 25 mph 1020.2mb 80f 74f
4:50am 5ft 6s 5s 22 27 mph 1019.4mb 80f 74f
3:50am 5ft 6s 5s 20 25 mph 1018.9mb 80f 74f
2:50am 4.5ft 6s 5s 18 22 mph 1018.7mb 80f 74f
1:50am 5ft 6s 5s 18 22 mph 1018.9mb 80f 75f
12:50am 4.5ft 5s 4s 22 27 mph 1019.2mb 80f 75f
Mon 02/08 11:50pm 3.5ft 8s 4s 25 27 mph 1019.2mb 80f 75f
10:50pm 3ft 9s 4s 20 25 mph 1019.8mb 80f 74f
9:50pm 3ft 9s 5s 13 18 mph 1020.1mb 80f 75f
8:50pm 3.5ft 9s 5s 13 18 mph 1019.8mb 80f 74f
7:50pm 3.5ft 9s 5s 11 13 mph 1019.6mb 80f 74f
6:50pm 3.5ft 10s 5s 13 20 mph 1018.9mb 80f 74f
5:50pm 3.5ft 9s 5s 13 18 mph 1018.1mb 80f 74f
4:50pm 3.5ft 10s 5s 16 20 mph 1017.7mb 80f 74f
3:50pm 3.5ft 10s 5s 18 22 mph 1017.6mb 80f 74f
2:50pm 4ft 10s 5s 18 22 mph 1017.7mb 80f 73f
1:50pm 3.5ft 10s 5s 18 22 mph 1017.8mb 80f 73f
12:50pm 4ft 9s 5s 16 20 mph 1018.7mb 80f 73f
11:50am 4ft 9s 5s 13 20 mph 1019.5mb 80f 73f
10:50am 4.5ft 9s 5s 13 18 mph 1019.9mb 80f 74f
9:50am 4.5ft 9s 5s 13 18 mph 1020.6mb 80f 74f
8:50am 4.5ft 9s 5s 16 20 mph 1020.1mb 80f 73f
7:50am 4.5ft 10s 5s 16 18 mph 1019.3mb 80f 73f
6:50am 4.5ft 10s 5s 16 20 mph 1018.3mb 80f 74f
5:50am 4.5ft 10s 5s 16 20 mph 1017.6mb 80f 74f
4:50am 5ft 10s 6s 16 18 mph 1017.3mb 80f 74f
3:50am 4.5ft 10s 5s 11 13 mph 1017mb 80f 74f
2:50am 5ft 10s 6s 11 16 mph 1016.9mb 80f 75f
1:50am 5.5ft 9s 5s 16 20 mph 1017mb 80f 74f
12:50am 6ft 10s 5s 20 25 mph 1017.2mb 80f 75f
Sun 02/07 11:50pm 6ft 10s 6s 18 22 mph 1018.2mb 80f 74f
10:50pm 6.5ft 9s 6s 18 22 mph 1018.8mb 80f 74f
9:50pm 6ft 11s 6s 18 20 mph 1019.4mb 80f 74f
8:50pm 6.5ft 10s 6s 18 20 mph 1019mb 80f 75f
7:50pm 7ft 10s 6s 18 22 mph 1018.4mb 80f 74f
6:50pm 7ft 8s 5s 20 22 mph 1017.8mb 80f 74f
5:50pm 7ft 9s 5s 22 27 mph 1017.3mb 80f 74f
4:50pm 6.5ft 8s 6s 20 25 mph 1017.2mb 80f 75f
3:50pm 7ft 8s 6s 20 25 mph 1016.7mb 80f 75f
2:50pm 7.5ft 8s 6s 22 29 mph 1016.6mb 80f 75f
1:50pm 8ft 8s 6s 25 31 mph 1016.7mb 80f 75f
12:50pm 7ft 7s 5s 25 29 mph 1017.5mb 80f 75f
11:50am 8ft 7s 6s 25 31 mph 1018mb 81f 75f
10:50am 7ft 7s 5s 27 31 mph 1018.7mb 80f 75f
9:50am 7ft 7s 5s 27 31 mph 1019mb 80f 75f
8:50am 7ft 6s 5s 25 31 mph 1018.6mb 80f 76f
7:50am 7ft 6s 5s 25 31 mph 1017.9mb 80f 76f
6:50am 7ft 6s 5s 25 31 mph 1017.2mb 80f 76f
5:50am 6.5ft 6s 5s 25 29 mph 1016.8mb 80f 76f
4:50am 6ft 6s 5s 27 34 mph 1016.2mb 80f 76f
3:50am 7ft 6s 5s 27 31 mph 1016mb 80f 76f
2:50am 6.5ft 6s 5s 29 36 mph 1015.9mb 80f 75f
1:50am 6ft 7s 5s 25 31 mph 1016.3mb 80f 77f
12:50am 7ft 6s 5s 25 29 mph 1016.8mb 80f 77f
Sat 02/06 11:50pm 7ft 6s 5s 25 29 mph 1017.1mb 80f 77f
10:50pm 7ft 6s 5s 25 31 mph 1017.4mb 80f 77f
9:50pm 6ft 6s 5s 25 29 mph 1017.5mb 80f 76f
8:50pm 6ft 5s 5s 27 31 mph 1017.5mb 80f 76f
7:50pm 5ft 11s 5s 25 29 mph 1017.2mb 80f 76f
6:50pm 4.5ft 11s 5s 20 25 mph 1017.1mb 80f 77f
5:50pm 5ft 11s 5s 18 20 mph 1016.6mb 80f 77f
4:50pm 5ft 11s 6s 20 22 mph 1016.5mb 80f 77f
3:50pm 5ft 11s 6s 18 20 mph 1016.1mb 80f 77f
2:50pm 5.5ft 11s 6s 18 20 mph 1016.2mb 80f 76f
1:50pm 6ft 11s 6s 16 20 mph 1016.6mb 80f 76f
12:50pm 5.5ft 11s 6s 16 20 mph 1017.1mb 80f 76f
11:50am 5.5ft 11s 6s 13 18 mph 1017.7mb 80f 75f
10:50am 6ft 11s 6s 18 20 mph 1018.4mb 80f 74f
9:50am 6ft 11s 5s 18 25 mph 1018.9mb 80f 74f
8:50am 6ft 11s 6s 20 22 mph 1018.5mb 80f 73f
7:50am 6.5ft 11s 6s 18 20 mph 1017.7mb 80f 75f
6:50am 6.5ft 11s 6s 20 22 mph 1016.8mb 81f 75f
5:50am 6.5ft 11s 6s 20 22 mph 1016.2mb 81f 76f
4:50am 6ft 11s 6s 20 25 mph 1015.6mb 81f 76f
3:50am 6ft 11s 6s 18 20 mph 1015.2mb 81f 76f
2:50am 7ft 11s 6s 20 25 mph 1015.2mb 81f 76f
1:50am 7ft 11s 6s 20 22 mph 1015.5mb 81f 76f
12:50am 7ft 11s 6s 20 25 mph 1015.8mb 81f 77f